AXY655 KMCO-LIMC

Flight info

Callsign AXY655
Flight time N/A
Altitude 38000
Route FATHE4 VIYAP Q87 JROSS Q135 RAPZZ PRONI PUNGO PHITZ DWSEN KW54A PREPI KB63C MONTK VITOL NANSO N55B RAFIN 4550N 4740N 4730N 4720N 4715N SEPAL UN470 LAPEX GALOF PECNO VALKU TIS MEBAK GIPNO BALSI GIGUS MEDAM LAPRI MOGBO TOP M135 ASTIG
Aircraft A343/H-SDE2E3FGHIJ4J5M1RWXY/LB1D1

Departure

Time 2026-04-25 12:38
Airport Orlando International Airport (KMCO)

Arrival

Time N/A
Airport Milan Malpensa International Airport (LIMC)
Time Latitude Longitude Altitude Speed Heading
2026-04-25 11:14 28.42120 -81.33097 107 ft 0 kts
2026-04-25 12:08 28.42121 -81.33097 107 ft 1 kts
2026-04-25 12:08 28.42131 -81.33093 111 ft 2 kts 25°
2026-04-25 12:08 28.42137 -81.33082 106 ft 2 kts 58°
2026-04-25 12:09 28.42139 -81.33071 106 ft 1 kts 79°
2026-04-25 12:09 28.42138 -81.33062 106 ft 1 kts 91°
2026-04-25 12:09 28.42138 -81.33058 106 ft 0 kts 91°
2026-04-25 12:11 28.42138 -81.33043 106 ft 3 kts 90°
2026-04-25 12:11 28.42139 -81.33005 106 ft 6 kts 89°
2026-04-25 12:12 28.42142 -81.32958 109 ft 6 kts 73°
2026-04-25 12:12 28.42159 -81.32934 109 ft 6 kts 44°
2026-04-25 12:12 28.42223 -81.32916 107 ft 9 kts 358°
2026-04-25 12:12 28.42295 -81.32917 106 ft 12 kts
2026-04-25 12:13 28.42383 -81.32917 105 ft 14 kts
2026-04-25 12:13 28.42478 -81.32917 104 ft 13 kts 359°
2026-04-25 12:13 28.42565 -81.32918 105 ft 9 kts 359°
2026-04-25 12:13 28.42619 -81.32918 107 ft 7 kts
2026-04-25 12:14 28.42646 -81.32892 108 ft 4 kts 61°
2026-04-25 12:14 28.42650 -81.32861 108 ft 4 kts 85°
2026-04-25 12:14 28.42651 -81.32814 107 ft 9 kts 89°
2026-04-25 12:14 28.42653 -81.32726 106 ft 12 kts 89°
2026-04-25 12:15 28.42632 -81.32632 107 ft 12 kts 119°
2026-04-25 12:15 28.42592 -81.32553 108 ft 11 kts 120°
2026-04-25 12:15 28.42556 -81.32484 110 ft 10 kts 120°
2026-04-25 12:15 28.42521 -81.32416 110 ft 10 kts 120°
2026-04-25 12:16 28.42489 -81.32351 111 ft 8 kts 120°
2026-04-25 12:16 28.42482 -81.32336 111 ft 0 kts 120°
2026-04-25 12:18 28.42473 -81.32319 110 ft 5 kts 120°
2026-04-25 12:19 28.42418 -81.32211 114 ft 11 kts 120°
2026-04-25 12:19 28.42373 -81.32125 111 ft 13 kts 120°
2026-04-25 12:19 28.42346 -81.32027 111 ft 12 kts 92°
2026-04-25 12:20 28.42346 -81.31939 113 ft 10 kts 90°
2026-04-25 12:20 28.42346 -81.31887 112 ft 6 kts 89°
2026-04-25 12:20 28.42347 -81.31831 111 ft 8 kts 89°
2026-04-25 12:20 28.42347 -81.31763 110 ft 8 kts 89°
2026-04-25 12:21 28.42348 -81.31705 109 ft 8 kts 89°
2026-04-25 12:21 28.42349 -81.31630 107 ft 11 kts 89°
2026-04-25 12:21 28.42350 -81.31539 106 ft 12 kts 89°
2026-04-25 12:21 28.42350 -81.31436 105 ft 14 kts 89°
2026-04-25 12:22 28.42351 -81.31326 104 ft 14 kts 90°
2026-04-25 12:22 28.42345 -81.31211 105 ft 15 kts 97°
2026-04-25 12:22 28.42327 -81.31096 106 ft 15 kts 100°
2026-04-25 12:22 28.42319 -81.30981 104 ft 15 kts 91°
2026-04-25 12:23 28.42323 -81.30862 104 ft 15 kts 86°
2026-04-25 12:23 28.42330 -81.30763 110 ft 10 kts 85°
2026-04-25 12:23 28.42337 -81.30687 110 ft 10 kts 85°
2026-04-25 12:23 28.42342 -81.30609 110 ft 10 kts 86°
2026-04-25 12:24 28.42346 -81.30541 110 ft 0 kts 86°
2026-04-25 12:25 28.42346 -81.30540 110 ft 0 kts 86°
2026-04-25 12:25 28.42347 -81.30527 110 ft 3 kts 85°
2026-04-25 12:25 28.42349 -81.30501 110 ft 4 kts 85°
2026-04-25 12:25 28.42352 -81.30452 106 ft 11 kts 85°
2026-04-25 12:26 28.42357 -81.30345 105 ft 14 kts 88°
2026-04-25 12:26 28.42359 -81.30240 106 ft 13 kts 89°
2026-04-25 12:26 28.42361 -81.30141 107 ft 12 kts 89°
2026-04-25 12:26 28.42362 -81.30045 108 ft 12 kts 89°
2026-04-25 12:27 28.42362 -81.29947 108 ft 13 kts 89°
2026-04-25 12:27 28.42363 -81.29844 107 ft 13 kts 89°
2026-04-25 12:27 28.42365 -81.29745 106 ft 7 kts 89°
2026-04-25 12:27 28.42365 -81.29717 105 ft 0 kts 89°
2026-04-25 12:29 28.42365 -81.29713 105 ft 2 kts 89°
2026-04-25 12:29 28.42365 -81.29664 105 ft 10 kts 89°
2026-04-25 12:29 28.42366 -81.29576 103 ft 12 kts 89°
2026-04-25 12:29 28.42366 -81.29478 105 ft 11 kts 90°
2026-04-25 12:30 28.42366 -81.29398 106 ft 11 kts 90°
2026-04-25 12:30 28.42366 -81.29310 108 ft 11 kts 90°
2026-04-25 12:30 28.42331 -81.29257 108 ft 8 kts 152°
2026-04-25 12:30 28.42292 -81.29210 110 ft 6 kts 111°
2026-04-25 12:31 28.42293 -81.29136 111 ft 13 kts 81°
2026-04-25 12:31 28.42320 -81.29010 111 ft 19 kts 71°
2026-04-25 12:31 28.42365 -81.28866 111 ft 19 kts 71°
2026-04-25 12:31 28.42409 -81.28723 109 ft 21 kts 70°
2026-04-25 12:32 28.42455 -81.28576 110 ft 19 kts 70°
2026-04-25 12:32 28.42499 -81.28434 110 ft 17 kts 70°
2026-04-25 12:32 28.42576 -81.28367 110 ft 14 kts
2026-04-25 12:32 28.42669 -81.28366 111 ft 14 kts
2026-04-25 12:33 28.42771 -81.28367 108 ft 16 kts 359°
2026-04-25 12:33 28.42893 -81.28368 105 ft 19 kts 359°
2026-04-25 12:33 28.43024 -81.28369 105 ft 19 kts 359°
2026-04-25 12:33 28.43154 -81.28370 105 ft 19 kts 359°
2026-04-25 12:34 28.43290 -81.28372 103 ft 20 kts 359°
2026-04-25 12:34 28.43426 -81.28373 105 ft 19 kts 359°
2026-04-25 12:34 28.43554 -81.28375 108 ft 18 kts 359°
2026-04-25 12:34 28.43633 -81.28376 108 ft 17 kts 359°
2026-04-25 12:35 28.43788 -81.28378 110 ft 16 kts 359°
2026-04-25 12:35 28.43894 -81.28380 111 ft 14 kts 359°
2026-04-25 12:35 28.43990 -81.28381 113 ft 14 kts 359°
2026-04-25 12:35 28.44087 -81.28382 110 ft 15 kts
2026-04-25 12:36 28.44196 -81.28381 110 ft 16 kts
2026-04-25 12:36 28.44299 -81.28382 109 ft 11 kts
2026-04-25 12:36 28.44331 -81.28372 109 ft 0 kts 28°
2026-04-25 12:36 28.44347 -81.28356 109 ft 6 kts 49°
2026-04-25 12:37 28.44359 -81.28304 108 ft 8 kts 90°
2026-04-25 12:37 28.44336 -81.28263 108 ft 4 kts 149°
2026-04-25 12:37 28.44310 -81.28260 109 ft 7 kts 176°
2026-04-25 12:37 28.44105 -81.28252 110 ft 57 kts 180°
2026-04-25 12:38 28.43529 -81.28251 107 ft 108 kts 179°
2026-04-25 12:38 28.42628 -81.28241 109 ft 148 kts 180°
2026-04-25 12:38 28.41522 -81.28239 384 ft 163 kts 180°
2026-04-25 12:38 28.40374 -81.28232 854 ft 167 kts 179°
2026-04-25 12:39 28.39189 -81.28200 1343 ft 177 kts 176°
2026-04-25 12:39 28.37993 -81.27629 1572 ft 202 kts 139°
2026-04-25 12:39 28.37211 -81.26177 1789 ft 236 kts 105°
2026-04-25 12:39 28.37129 -81.24249 2381 ft 252 kts 86°
2026-04-25 12:40 28.37324 -81.22242 3198 ft 257 kts 83°
2026-04-25 12:40 28.37541 -81.20222 4061 ft 260 kts 83°
2026-04-25 12:40 28.37754 -81.18167 4885 ft 264 kts 83°
2026-04-25 12:40 28.37963 -81.16067 5684 ft 269 kts 83°
2026-04-25 12:41 28.38393 -81.13988 6500 ft 272 kts 67°
2026-04-25 12:41 28.39411 -81.12178 7249 ft 275 kts 43°
2026-04-25 12:41 28.41031 -81.11044 7970 ft 277 kts 15°
2026-04-25 12:41 28.42941 -81.10959 8719 ft 278 kts 345°
2026-04-25 12:42 28.44683 -81.11804 9472 ft 278 kts 321°
2026-04-25 12:42 28.45654 -81.12802 10022 ft 278 kts 314°
2026-04-25 12:42 28.47540 -81.14875 10634 ft 296 kts 317°
2026-04-25 12:42 28.49231 -81.16327 10916 ft 314 kts 329°
2026-04-25 12:43 28.51291 -81.17343 11191 ft 331 kts 339°
2026-04-25 12:43 28.53534 -81.18187 11472 ft 347 kts 341°
2026-04-25 12:43 28.58297 -81.19867 12368 ft 366 kts 342°
2026-04-25 12:44 28.60750 -81.20721 12966 ft 370 kts 342°
2026-04-25 12:44 28.63228 -81.21583 13589 ft 374 kts 342°
2026-04-25 12:44 28.68267 -81.23334 14698 ft 382 kts 341°
2026-04-25 12:45 28.70821 -81.24222 15264 ft 386 kts 341°
2026-04-25 12:45 28.73400 -81.25119 15769 ft 390 kts 341°
2026-04-25 12:45 28.78610 -81.26932 16552 ft 394 kts 341°
2026-04-25 12:46 28.81238 -81.27847 17179 ft 396 kts 341°
2026-04-25 12:46 28.83911 -81.28690 17728 ft 401 kts 347°
2026-04-25 12:46 28.86702 -81.29093 18260 ft 407 kts 353°
2026-04-25 12:46 28.89503 -81.29331 18745 ft 410 kts 354°
2026-04-25 12:47 28.92362 -81.29563 19266 ft 413 kts 354°
2026-04-25 12:47 28.95231 -81.29800 19773 ft 415 kts 354°
2026-04-25 12:47 28.98154 -81.30045 20318 ft 417 kts 354°
2026-04-25 12:47 29.01058 -81.30308 20799 ft 420 kts 353°
2026-04-25 12:48 29.03935 -81.30630 21299 ft 422 kts 352°
2026-04-25 12:48 29.06871 -81.30968 21788 ft 425 kts 352°
2026-04-25 12:48 29.09830 -81.31305 22266 ft 427 kts 352°
2026-04-25 12:48 29.12801 -81.31616 22735 ft 431 kts 354°
2026-04-25 12:49 29.15808 -81.31792 23195 ft 434 kts 355°
2026-04-25 12:49 29.18832 -81.31942 23628 ft 436 kts 355°
2026-04-25 12:49 29.21869 -81.32104 23982 ft 439 kts 355°
2026-04-25 12:49 29.24928 -81.32276 24357 ft 441 kts 355°
2026-04-25 12:50 29.26961 -81.32393 24580 ft 443 kts 355°
2026-04-25 12:50 29.31096 -81.32637 25042 ft 446 kts 355°
2026-04-25 12:50 29.34207 -81.32822 25407 ft 448 kts 355°
2026-04-25 12:50 29.37330 -81.33009 25760 ft 450 kts 355°
2026-04-25 12:51 29.40470 -81.33197 26116 ft 452 kts 356°
2026-04-25 12:51 29.43623 -81.33387 26441 ft 454 kts 356°
2026-04-25 12:51 29.46793 -81.33578 26777 ft 456 kts 356°
2026-04-25 12:51 29.49970 -81.33770 27107 ft 458 kts 356°
2026-04-25 12:52 29.53159 -81.33962 27434 ft 460 kts 356°
2026-04-25 12:52 29.56358 -81.34155 27741 ft 462 kts 356°
2026-04-25 12:52 29.59535 -81.34348 28034 ft 464 kts 356°
2026-04-25 12:52 29.62801 -81.34545 28363 ft 465 kts 356°
2026-04-25 12:53 29.66007 -81.34739 28658 ft 467 kts 356°
2026-04-25 12:53 29.69255 -81.34924 28948 ft 469 kts 357°
2026-04-25 12:53 29.72520 -81.35109 29246 ft 470 kts 357°
2026-04-25 12:53 29.75789 -81.35294 29677 ft 469 kts 357°
2026-04-25 12:54 29.79040 -81.35479 30087 ft 467 kts 357°
2026-04-25 12:54 29.82278 -81.35665 30417 ft 466 kts 357°
2026-04-25 12:54 29.85520 -81.35851 30695 ft 466 kts 357°
2026-04-25 12:54 29.88762 -81.36037 30979 ft 466 kts 357°
2026-04-25 12:55 29.92001 -81.36223 31267 ft 466 kts 357°
2026-04-25 12:55 29.93097 -81.36286 31363 ft 466 kts 357°
2026-04-25 12:55 29.98470 -81.36595 31837 ft 465 kts 357°
2026-04-25 12:55 30.01702 -81.36781 32118 ft 465 kts 357°
2026-04-25 12:56 30.04938 -81.36967 32391 ft 464 kts 357°
2026-04-25 12:56 30.08138 -81.37152 32657 ft 464 kts 357°
2026-04-25 12:56 30.11390 -81.37340 32931 ft 464 kts 357°
2026-04-25 12:56 30.14605 -81.37525 33250 ft 462 kts 357°
2026-04-25 12:57 30.17814 -81.37711 33562 ft 461 kts 357°
2026-04-25 12:57 30.21015 -81.37896 33820 ft 460 kts 357°
2026-04-25 12:57 30.24177 -81.38079 34061 ft 460 kts 357°
2026-04-25 12:57 30.27375 -81.38264 34299 ft 459 kts 357°
2026-04-25 12:58 30.30562 -81.38449 34548 ft 458 kts 357°
2026-04-25 12:58 30.33737 -81.38633 34788 ft 457 kts 357°
2026-04-25 12:58 30.36911 -81.38817 35026 ft 456 kts 356°
2026-04-25 12:58 30.40082 -81.39001 35268 ft 455 kts 356°
2026-04-25 12:59 30.43233 -81.39184 35494 ft 453 kts 356°
2026-04-25 12:59 30.46392 -81.39368 35721 ft 452 kts 356°
2026-04-25 12:59 30.49534 -81.39546 35948 ft 451 kts 357°
2026-04-25 12:59 30.52672 -81.39707 36150 ft 451 kts 357°
2026-04-25 13:00 30.55763 -81.39866 36358 ft 450 kts 356°
2026-04-25 13:00 30.56813 -81.39921 36423 ft 449 kts 356°
2026-04-25 13:00 30.62040 -81.40194 36767 ft 448 kts 356°
2026-04-25 13:00 30.65115 -81.40356 36942 ft 448 kts 356°
2026-04-25 13:01 30.71363 -81.40687 36979 ft 449 kts 356°
2026-04-25 13:01 30.77583 -81.41017 36977 ft 446 kts 356°
2026-04-25 13:02 30.82786 -81.41293 36974 ft 446 kts 356°
2026-04-25 13:02 30.88955 -81.41622 36971 ft 447 kts 356°
2026-04-25 13:03 30.95164 -81.41953 36962 ft 447 kts 356°
2026-04-25 13:03 31.01372 -81.42284 36962 ft 446 kts 356°
2026-04-25 13:04 31.07576 -81.42615 36962 ft 446 kts 356°
2026-04-25 13:04 31.13777 -81.42947 36962 ft 446 kts 356°
2026-04-25 13:05 31.19985 -81.43280 36961 ft 446 kts 356°
2026-04-25 13:05 31.26190 -81.43542 36954 ft 448 kts
2026-04-25 13:06 31.29230 -81.42711 36976 ft 450 kts 20°
2026-04-25 13:06 31.32057 -81.41133 36972 ft 452 kts 26°
2026-04-25 13:06 31.37526 -81.37415 36968 ft 455 kts 27°
2026-04-25 13:07 31.43102 -81.33930 36968 ft 454 kts 24°
2026-04-25 13:07 31.48772 -81.30750 36967 ft 454 kts 22°
2026-04-25 13:08 31.54517 -81.27646 36970 ft 454 kts 22°
2026-04-25 13:08 31.60239 -81.24553 36955 ft 452 kts 22°
2026-04-25 13:09 31.65945 -81.21448 36954 ft 451 kts 22°
2026-04-25 13:09 31.71617 -81.18358 36935 ft 451 kts 22°
2026-04-25 13:10 31.77310 -81.15241 36923 ft 451 kts 22°
2026-04-25 13:10 31.83005 -81.12117 36916 ft 452 kts 22°
2026-04-25 13:11 31.88709 -81.08986 36909 ft 452 kts 22°
2026-04-25 13:11 31.94412 -81.05853 36907 ft 452 kts 22°
2026-04-25 13:12 32.00113 -81.02719 36907 ft 452 kts 22°
2026-04-25 13:12 32.04846 -81.00101 36910 ft 453 kts 23°
2026-04-25 13:13 32.11518 -80.96354 36914 ft 455 kts 23°
2026-04-25 13:13 32.17240 -80.93137 36944 ft 456 kts 23°
2026-04-25 13:14 32.22981 -80.89914 37006 ft 463 kts 23°
2026-04-25 13:14 32.25889 -80.88281 37114 ft 462 kts 22°
2026-04-25 13:14 32.28779 -80.86655 37234 ft 456 kts 22°
2026-04-25 13:15 32.31633 -80.85048 37386 ft 453 kts 22°
2026-04-25 13:15 32.34472 -80.83450 37509 ft 452 kts 22°
2026-04-25 13:15 32.37285 -80.81866 37634 ft 451 kts 22°
2026-04-25 13:15 32.40156 -80.80249 37787 ft 451 kts 22°
2026-04-25 13:16 32.42955 -80.78671 37910 ft 451 kts 22°
2026-04-25 13:16 32.45789 -80.77072 38052 ft 451 kts 22°
2026-04-25 13:16 32.48653 -80.75454 38193 ft 451 kts 22°
2026-04-25 13:16 32.51449 -80.73874 38332 ft 450 kts 22°
2026-04-25 13:17 32.54276 -80.72275 38470 ft 449 kts 22°
2026-04-25 13:17 32.57097 -80.70679 38608 ft 449 kts 22°
2026-04-25 13:17 32.59915 -80.69083 38728 ft 449 kts 22°
2026-04-25 13:17 32.62731 -80.67486 38844 ft 448 kts 22°
2026-04-25 13:18 32.68355 -80.64217 38935 ft 453 kts 27°
2026-04-25 13:18 32.73347 -80.59610 38937 ft 458 kts 43°
2026-04-25 13:19 32.77626 -80.54065 38935 ft 459 kts 45°
2026-04-25 13:19 32.81117 -80.49299 38930 ft 459 kts 46°
2026-04-25 13:20 32.86013 -80.42586 38930 ft 460 kts 46°
2026-04-25 13:20 32.90220 -80.36853 38949 ft 460 kts 46°
2026-04-25 13:21 32.94430 -80.31123 38949 ft 460 kts 46°
2026-04-25 13:21 32.98645 -80.25383 38933 ft 460 kts 46°
2026-04-25 13:22 33.02826 -80.19681 38949 ft 460 kts 46°
2026-04-25 13:23 33.09125 -80.11067 38933 ft 458 kts 46°
2026-04-25 13:23 33.13300 -80.05346 38935 ft 457 kts 46°
2026-04-25 13:24 33.17471 -79.99624 38934 ft 457 kts 46°
2026-04-25 13:24 33.21647 -79.93886 38934 ft 457 kts 46°
2026-04-25 13:25 33.25814 -79.88149 38935 ft 457 kts 46°
2026-04-25 13:25 33.29987 -79.82397 38935 ft 458 kts 46°
2026-04-25 13:26 33.34143 -79.76659 38936 ft 458 kts 46°
2026-04-25 13:26 33.38307 -79.70904 38938 ft 457 kts 46°
2026-04-25 13:27 33.42463 -79.65146 38940 ft 456 kts 46°
2026-04-25 13:27 33.46616 -79.59380 38940 ft 457 kts 46°
2026-04-25 13:28 33.50763 -79.53615 38940 ft 457 kts 46°
2026-04-25 13:28 33.54894 -79.47866 38942 ft 459 kts 47°
2026-04-25 13:29 33.59072 -79.42042 38953 ft 461 kts 47°
2026-04-25 13:29 33.63232 -79.36231 38942 ft 457 kts 47°
2026-04-25 13:30 33.69442 -79.27551 38945 ft 456 kts 47°
2026-04-25 13:31 33.75648 -79.18861 38943 ft 457 kts 47°
2026-04-25 13:31 33.79800 -79.13030 38942 ft 461 kts 47°
2026-04-25 13:32 33.83949 -79.07197 38942 ft 462 kts 47°
2026-04-25 13:32 33.88114 -79.01331 38944 ft 460 kts 47°
2026-04-25 13:33 33.92266 -78.95474 38941 ft 459 kts 47°
2026-04-25 13:33 33.96412 -78.89618 38937 ft 459 kts 47°
2026-04-25 13:34 34.00557 -78.83753 38939 ft 461 kts 47°
2026-04-25 13:34 34.04722 -78.77854 38932 ft 463 kts 47°
2026-04-25 13:35 34.08886 -78.71942 38939 ft 463 kts 47°
2026-04-25 13:35 34.13057 -78.66010 38942 ft 462 kts 47°
2026-04-25 13:36 34.17203 -78.60102 38942 ft 460 kts 47°
2026-04-25 13:36 34.21340 -78.54201 38941 ft 461 kts 47°
2026-04-25 13:37 34.25236 -78.47998 38939 ft 468 kts 58°
2026-04-25 13:37 34.28190 -78.40951 38931 ft 470 kts 62°
2026-04-25 13:38 34.30930 -78.33820 38929 ft 471 kts 63°
2026-04-25 13:38 34.33664 -78.26611 38928 ft 471 kts 63°
2026-04-25 13:39 34.36405 -78.19414 38935 ft 471 kts 63°
2026-04-25 13:39 34.39156 -78.12212 38930 ft 471 kts 62°
2026-04-25 13:40 34.41904 -78.05011 38941 ft 472 kts 62°
2026-04-25 13:40 34.44658 -77.97780 38939 ft 474 kts 63°
2026-04-25 13:41 34.47412 -77.90527 38928 ft 473 kts 63°
2026-04-25 13:41 34.50153 -77.83293 38928 ft 472 kts 63°
2026-04-25 13:42 34.52886 -77.76063 38935 ft 472 kts 63°
2026-04-25 13:42 34.55815 -77.68972 38930 ft 468 kts 54°
2026-04-25 13:43 34.59996 -77.63011 38930 ft 462 kts 42°
2026-04-25 13:43 34.64642 -77.57587 38936 ft 464 kts 40°
2026-04-25 13:44 34.69354 -77.52234 38934 ft 463 kts 40°
2026-04-25 13:44 34.74048 -77.46876 38934 ft 463 kts 40°
2026-04-25 13:45 34.78693 -77.41533 38934 ft 463 kts 40°
2026-04-25 13:45 34.83362 -77.36140 38932 ft 463 kts 40°
2026-04-25 13:46 34.88043 -77.30726 38931 ft 465 kts 40°
2026-04-25 13:46 34.92746 -77.25278 38929 ft 467 kts 40°
2026-04-25 13:47 34.97457 -77.19812 38930 ft 466 kts 40°
2026-04-25 13:47 35.02140 -77.14366 38934 ft 464 kts 40°
2026-04-25 13:48 35.06026 -77.09843 38934 ft 464 kts 40°
2026-04-25 13:48 35.10706 -77.04388 38934 ft 466 kts 40°
2026-04-25 13:49 35.15395 -76.98914 38933 ft 467 kts 40°
2026-04-25 13:49 35.20085 -76.93428 38914 ft 467 kts 40°
2026-04-25 13:50 35.24772 -76.87936 38906 ft 467 kts 40°
2026-04-25 13:50 35.29454 -76.82441 38905 ft 466 kts 40°
2026-04-25 13:51 35.34127 -76.76946 38906 ft 465 kts 40°
2026-04-25 13:51 35.38795 -76.71449 38906 ft 465 kts 40°
2026-04-25 13:52 35.43457 -76.65951 38903 ft 465 kts 40°
2026-04-25 13:52 35.48120 -76.60441 38903 ft 465 kts 40°
2026-04-25 13:53 35.52755 -76.54954 38905 ft 466 kts 40°
2026-04-25 13:53 35.57434 -76.49409 38905 ft 467 kts 40°
2026-04-25 13:54 35.62293 -76.44138 38903 ft 463 kts 32°
2026-04-25 13:54 35.67513 -76.39514 38900 ft 462 kts 31°
2026-04-25 13:55 35.72785 -76.34987 38906 ft 462 kts 31°
2026-04-25 13:55 35.78067 -76.30460 38896 ft 462 kts 31°
2026-04-25 13:56 35.83315 -76.25940 38897 ft 463 kts 31°
2026-04-25 13:56 35.88585 -76.21384 38898 ft 463 kts 31°
2026-04-25 13:57 35.93854 -76.16819 38897 ft 463 kts 31°
2026-04-25 13:57 35.99134 -76.12237 38895 ft 464 kts 31°
2026-04-25 13:58 36.04404 -76.07656 38892 ft 463 kts 31°
2026-04-25 13:58 36.09663 -76.03078 38896 ft 462 kts 31°
2026-04-25 13:59 36.14923 -75.98492 38896 ft 462 kts 31°
2026-04-25 13:59 36.20184 -75.93898 38897 ft 463 kts 31°
2026-04-25 14:00 36.24568 -75.90064 38892 ft 464 kts 31°
2026-04-25 14:00 36.30941 -75.85144 38892 ft 461 kts 25°
2026-04-25 14:01 36.36504 -75.81198 38891 ft 460 kts 25°
2026-04-25 14:01 36.42078 -75.77277 38876 ft 461 kts 24°
2026-04-25 14:02 36.47610 -75.73374 38892 ft 459 kts 24°
2026-04-25 14:02 36.53163 -75.69444 38874 ft 459 kts 24°
2026-04-25 14:03 36.58707 -75.65511 38892 ft 459 kts 24°
2026-04-25 14:03 36.64254 -75.61568 38893 ft 459 kts 24°
2026-04-25 14:04 36.69801 -75.57619 38886 ft 459 kts 24°
2026-04-25 14:04 36.75352 -75.53660 38895 ft 459 kts 24°
2026-04-25 14:05 36.80908 -75.49692 38889 ft 459 kts 24°
2026-04-25 14:05 36.86465 -75.45715 38891 ft 460 kts 24°
2026-04-25 14:06 36.92013 -75.41739 38901 ft 460 kts 24°
2026-04-25 14:06 36.97511 -75.37790 38894 ft 457 kts 24°
2026-04-25 14:07 37.03028 -75.33822 38903 ft 457 kts 24°
2026-04-25 14:07 37.08545 -75.29848 38901 ft 457 kts 24°
2026-04-25 14:08 37.14052 -75.25875 38904 ft 457 kts 24°
2026-04-25 14:08 37.19577 -75.21882 38910 ft 457 kts 24°
2026-04-25 14:09 37.25089 -75.17891 38914 ft 457 kts 24°
2026-04-25 14:09 37.30570 -75.13915 38915 ft 457 kts 24°
2026-04-25 14:10 37.36082 -75.09911 38921 ft 457 kts 24°
2026-04-25 14:10 37.41606 -75.05891 38928 ft 458 kts 24°
2026-04-25 14:11 37.47102 -75.01882 38929 ft 455 kts 24°
2026-04-25 14:11 37.52584 -74.97878 38931 ft 455 kts 24°
2026-04-25 14:12 37.58054 -74.93878 38934 ft 455 kts 24°
2026-04-25 14:12 37.63493 -74.89893 38933 ft 455 kts 24°
2026-04-25 14:13 37.69046 -74.86124 38945 ft 452 kts 20°
2026-04-25 14:13 37.74685 -74.82586 38937 ft 452 kts 20°
2026-04-25 14:14 37.80307 -74.79025 38943 ft 452 kts 20°
2026-04-25 14:14 37.85916 -74.75408 38950 ft 453 kts 21°
2026-04-25 14:15 37.91520 -74.71764 38949 ft 453 kts 20°
2026-04-25 14:15 37.97131 -74.68109 38956 ft 453 kts 20°
2026-04-25 14:16 38.02752 -74.64442 38959 ft 454 kts 20°
2026-04-25 14:16 38.08364 -74.60777 38967 ft 454 kts 20°
2026-04-25 14:17 38.13986 -74.57099 38972 ft 454 kts 20°
2026-04-25 14:17 38.19571 -74.53439 38973 ft 455 kts 20°
2026-04-25 14:18 38.25196 -74.49747 38978 ft 455 kts 20°
2026-04-25 14:18 38.30818 -74.46049 38983 ft 455 kts 20°
2026-04-25 14:19 38.36447 -74.42340 38989 ft 455 kts 20°
2026-04-25 14:19 38.42071 -74.38628 38987 ft 455 kts 20°
2026-04-25 14:20 38.47698 -74.34908 39003 ft 455 kts 20°
2026-04-25 14:20 38.53308 -74.31190 39007 ft 453 kts 20°
2026-04-25 14:21 38.58900 -74.27480 39004 ft 453 kts 20°
2026-04-25 14:21 38.64498 -74.23761 39004 ft 453 kts 20°
2026-04-25 14:22 38.70094 -74.20035 39015 ft 453 kts 20°
2026-04-25 14:22 38.75690 -74.16302 39018 ft 453 kts 20°
2026-04-25 14:23 38.81278 -74.12567 39020 ft 453 kts 20°
2026-04-25 14:23 38.86870 -74.08825 39027 ft 453 kts 20°
2026-04-25 14:24 38.92456 -74.05079 39025 ft 453 kts 20°
2026-04-25 14:24 38.98008 -74.01349 39032 ft 453 kts 20°
2026-04-25 14:25 39.03389 -73.96972 39038 ft 459 kts 26°
2026-04-25 14:25 39.08627 -73.92301 39044 ft 459 kts 27°
2026-04-25 14:26 39.13855 -73.87568 39062 ft 459 kts 27°
2026-04-25 14:26 39.19083 -73.82835 39043 ft 460 kts 27°
2026-04-25 14:27 39.24336 -73.78081 39053 ft 460 kts 27°
2026-04-25 14:27 39.29577 -73.73333 39055 ft 460 kts 27°
2026-04-25 14:28 39.34821 -73.68574 39060 ft 460 kts 27°
2026-04-25 14:28 39.40070 -73.63802 39069 ft 461 kts 27°
2026-04-25 14:29 39.45305 -73.59030 39067 ft 459 kts 27°
2026-04-25 14:29 39.50491 -73.54297 39073 ft 459 kts 27°
2026-04-25 14:30 39.55712 -73.49524 39075 ft 459 kts 27°
2026-04-25 14:30 39.63541 -73.42350 39075 ft 459 kts 27°
2026-04-25 14:31 39.68759 -73.37556 39075 ft 459 kts 28°
2026-04-25 14:31 39.73091 -73.33568 39082 ft 459 kts 28°
2026-04-25 14:32 39.79124 -73.27925 39083 ft 462 kts 32°
2026-04-25 14:32 39.82912 -73.22856 39087 ft 472 kts 45°
2026-04-25 14:33 39.86875 -73.15997 39088 ft 475 kts 47°
2026-04-25 14:33 39.90723 -73.08991 39091 ft 475 kts 47°
2026-04-25 14:34 39.94564 -73.01974 39092 ft 474 kts 47°
2026-04-25 14:34 39.98382 -72.95036 39106 ft 474 kts 47°
2026-04-25 14:35 40.02228 -72.88053 39096 ft 473 kts 47°
2026-04-25 14:35 40.06063 -72.81081 39118 ft 473 kts 47°
2026-04-25 14:36 40.09886 -72.74111 39105 ft 472 kts 47°
2026-04-25 14:36 40.13700 -72.67142 39108 ft 471 kts 47°
2026-04-25 14:37 40.17513 -72.60159 39129 ft 471 kts 47°
2026-04-25 14:37 40.21318 -72.53175 39113 ft 470 kts 47°
2026-04-25 14:38 40.25111 -72.46195 39116 ft 468 kts 47°
2026-04-25 14:38 40.28851 -72.39296 39116 ft 467 kts 47°
2026-04-25 14:39 40.32606 -72.32362 39121 ft 467 kts 47°
2026-04-25 14:39 40.36359 -72.25413 39138 ft 467 kts 47°
2026-04-25 14:40 40.40115 -72.18443 39132 ft 467 kts 47°
2026-04-25 14:40 40.43874 -72.11453 39126 ft 468 kts 47°
2026-04-25 14:41 40.47622 -72.04466 39127 ft 468 kts 47°
2026-04-25 14:41 40.50934 -71.97007 39134 ft 478 kts 58°
2026-04-25 14:42 40.53184 -71.90361 39149 ft 480 kts 60°
2026-04-25 14:42 40.56228 -71.80877 39137 ft 483 kts 60°
2026-04-25 14:43 40.58832 -71.72712 39137 ft 484 kts 60°
2026-04-25 14:43 40.61428 -71.64592 39135 ft 484 kts 60°
2026-04-25 14:44 40.64041 -71.56421 39144 ft 484 kts 60°
2026-04-25 14:44 40.66660 -71.48217 39142 ft 486 kts 60°
2026-04-25 14:45 40.69279 -71.39986 39135 ft 487 kts 60°
2026-04-25 14:45 40.71895 -71.31736 39150 ft 488 kts 60°
2026-04-25 14:46 40.74492 -71.23520 39139 ft 488 kts 60°
2026-04-25 14:46 40.77098 -71.15247 39132 ft 488 kts 60°
2026-04-25 14:47 40.79277 -71.08313 39129 ft 488 kts 60°
2026-04-25 14:47 40.82286 -70.98666 39142 ft 490 kts 62°
2026-04-25 14:48 40.84552 -70.90163 39138 ft 491 kts 65°
2026-04-25 14:48 40.86688 -70.81581 39141 ft 491 kts 64°
2026-04-25 14:49 40.88860 -70.73021 39136 ft 491 kts 64°
2026-04-25 14:49 40.91066 -70.64466 39136 ft 491 kts 63°
2026-04-25 14:50 40.93274 -70.55925 39140 ft 491 kts 63°
2026-04-25 14:50 40.95480 -70.47359 39129 ft 490 kts 63°
2026-04-25 14:51 40.97654 -70.38875 39133 ft 489 kts 63°
2026-04-25 14:51 40.99832 -70.30347 39133 ft 489 kts 63°
2026-04-25 14:52 41.02006 -70.21808 39147 ft 489 kts 63°
2026-04-25 14:52 41.03811 -70.14694 39143 ft 489 kts 63°
2026-04-25 14:53 41.06336 -70.04705 39142 ft 489 kts 63°
2026-04-25 14:53 41.08476 -69.96207 39143 ft 489 kts 63°
2026-04-25 14:54 41.10626 -69.87637 39142 ft 489 kts 63°
2026-04-25 14:54 41.12774 -69.79048 39140 ft 490 kts 63°
2026-04-25 14:55 41.14913 -69.70457 39136 ft 491 kts 63°
2026-04-25 14:55 41.17048 -69.61850 39131 ft 491 kts 63°
2026-04-25 14:56 41.19164 -69.53291 39133 ft 490 kts 63°
2026-04-25 14:56 41.21281 -69.44695 39132 ft 490 kts 63°
2026-04-25 14:57 41.23396 -69.36084 39136 ft 490 kts 63°
2026-04-25 14:57 41.25511 -69.27437 39129 ft 491 kts 63°
2026-04-25 14:58 41.27600 -69.18859 39158 ft 491 kts 64°
2026-04-25 14:58 41.29700 -69.10210 39140 ft 492 kts 64°
2026-04-25 14:59 41.31792 -69.01560 39127 ft 491 kts 64°
2026-04-25 14:59 41.33873 -68.92917 39122 ft 490 kts 64°
2026-04-25 15:00 41.35950 -68.84268 39136 ft 491 kts 64°
2026-04-25 15:00 41.38018 -68.75617 39123 ft 490 kts 64°
2026-04-25 15:01 41.40080 -68.66961 39121 ft 490 kts 64°
2026-04-25 15:01 41.42123 -68.58352 39113 ft 488 kts 65°
2026-04-25 15:02 41.44162 -68.49727 39119 ft 488 kts 65°
2026-04-25 15:02 41.46193 -68.41106 39116 ft 488 kts 65°
2026-04-25 15:03 41.48217 -68.32483 39113 ft 488 kts 65°
2026-04-25 15:03 41.50239 -68.23837 39113 ft 488 kts 65°
2026-04-25 15:04 41.52252 -68.15192 39112 ft 488 kts 65°
2026-04-25 15:04 41.54260 -68.06533 39108 ft 488 kts 65°
2026-04-25 15:05 41.56258 -67.97885 39108 ft 488 kts 65°
2026-04-25 15:06 41.59249 -67.84880 39102 ft 488 kts 65°
2026-04-25 15:06 41.61234 -67.76208 39103 ft 488 kts 65°
2026-04-25 15:07 41.63198 -67.67591 39103 ft 488 kts 66°
2026-04-25 15:07 41.65165 -67.58925 39097 ft 487 kts 66°
2026-04-25 15:08 41.67127 -67.50254 39093 ft 487 kts 66°
2026-04-25 15:08 41.69084 -67.41570 39091 ft 488 kts 66°
2026-04-25 15:09 41.71035 -67.32874 39093 ft 488 kts 66°
2026-04-25 15:09 41.73953 -67.19808 39101 ft 488 kts 66°
2026-04-25 15:10 41.75892 -67.11084 39080 ft 489 kts 67°
2026-04-25 15:11 41.78970 -66.98103 39077 ft 484 kts 62°
2026-04-25 15:11 41.81473 -66.89731 39075 ft 483 kts 61°
2026-04-25 15:12 41.85294 -66.77285 39072 ft 483 kts 61°
2026-04-25 15:12 41.87004 -66.71699 39067 ft 483 kts 61°
2026-04-25 15:13 41.91651 -66.56405 39083 ft 483 kts 62°
2026-04-25 15:14 41.94160 -66.48101 39053 ft 483 kts 62°
2026-04-25 15:14 41.96674 -66.39754 39044 ft 482 kts 62°
2026-04-25 15:15 41.99182 -66.31401 39059 ft 482 kts 62°
2026-04-25 15:15 42.01686 -66.23040 39064 ft 482 kts 62°
2026-04-25 15:16 42.04181 -66.14677 39050 ft 481 kts 62°
2026-04-25 15:16 42.07913 -66.02120 39037 ft 481 kts 62°
2026-04-25 15:17 42.11212 -65.90971 39054 ft 481 kts 63°
2026-04-25 15:18 42.14086 -65.81219 39030 ft 482 kts 63°
2026-04-25 15:18 42.17372 -65.70021 39026 ft 482 kts 63°
2026-04-25 15:19 42.19434 -65.62969 39023 ft 482 kts 63°
2026-04-25 15:19 42.22285 -65.53185 39021 ft 482 kts 63°
2026-04-25 15:20 42.24732 -65.44759 39019 ft 482 kts 63°
2026-04-25 15:20 42.27176 -65.36316 39021 ft 482 kts 63°
2026-04-25 15:21 42.29612 -65.27872 39010 ft 482 kts 63°
2026-04-25 15:21 42.32039 -65.19433 39014 ft 481 kts 63°
2026-04-25 15:22 42.34447 -65.11029 39002 ft 481 kts 63°
2026-04-25 15:22 42.36859 -65.02587 38995 ft 481 kts 64°
2026-04-25 15:23 42.39262 -64.94144 39001 ft 481 kts 64°
2026-04-25 15:23 42.41661 -64.85690 38990 ft 481 kts 64°
2026-04-25 15:24 42.44056 -64.77221 38990 ft 481 kts 64°
2026-04-25 15:24 42.46041 -64.70180 39001 ft 482 kts 64°
2026-04-25 15:25 42.48828 -64.60262 38995 ft 482 kts 64°
2026-04-25 15:25 42.51206 -64.51767 38983 ft 482 kts 64°
2026-04-25 15:26 42.53580 -64.43257 38980 ft 482 kts 64°
2026-04-25 15:26 42.55944 -64.34753 38981 ft 482 kts 64°
2026-04-25 15:27 42.58302 -64.26242 38973 ft 482 kts 65°
2026-04-25 15:28 42.61809 -64.13531 38971 ft 481 kts 65°
2026-04-25 15:28 42.64146 -64.05024 38966 ft 481 kts 65°
2026-04-25 15:29 42.66479 -63.96504 38963 ft 481 kts 65°
2026-04-25 15:29 42.68804 -63.87980 38963 ft 481 kts 65°
2026-04-25 15:30 42.71122 -63.79455 38953 ft 480 kts 65°
2026-04-25 15:30 42.73427 -63.70946 38950 ft 479 kts 65°
2026-04-25 15:31 42.75714 -63.62474 38954 ft 479 kts 65°
2026-04-25 15:31 42.78006 -63.53958 38944 ft 479 kts 65°
2026-04-25 15:32 42.80291 -63.45434 38944 ft 479 kts 66°
2026-04-25 15:32 42.82569 -63.36909 38936 ft 478 kts 66°
2026-04-25 15:33 42.85973 -63.24110 38930 ft 478 kts 66°
2026-04-25 15:33 42.88232 -63.15583 38926 ft 478 kts 66°
2026-04-25 15:34 42.90473 -63.07093 38930 ft 478 kts 66°
2026-04-25 15:34 42.92359 -62.99920 38920 ft 479 kts 66°
2026-04-25 15:35 42.96088 -62.85681 38912 ft 479 kts 66°
2026-04-25 15:36 42.99438 -62.72816 38900 ft 479 kts 66°
2026-04-25 15:36 43.01648 -62.64290 38891 ft 479 kts 66°
2026-04-25 15:37 43.03867 -62.55700 38889 ft 479 kts 67°
2026-04-25 15:37 43.06078 -62.47111 38886 ft 479 kts 67°
2026-04-25 15:38 43.08285 -62.38504 38885 ft 480 kts 67°
2026-04-25 15:38 43.10488 -62.29881 38879 ft 480 kts 67°
2026-04-25 15:39 43.12683 -62.21256 38875 ft 480 kts 67°
2026-04-25 15:39 43.14874 -62.12619 38864 ft 480 kts 67°
2026-04-25 15:40 43.16321 -62.06895 38865 ft 480 kts 67°
2026-04-25 15:40 43.19235 -61.95328 38860 ft 480 kts 67°
2026-04-25 15:41 43.21391 -61.86733 38848 ft 480 kts 68°
2026-04-25 15:41 43.23556 -61.78069 38848 ft 480 kts 67°
2026-04-25 15:42 43.25714 -61.69403 38848 ft 480 kts 67°
2026-04-25 15:42 43.27866 -61.60727 38843 ft 480 kts 68°
2026-04-25 15:43 43.30012 -61.52040 38841 ft 480 kts 68°
2026-04-25 15:43 43.32149 -61.43359 38836 ft 480 kts 68°
2026-04-25 15:44 43.34286 -61.34650 38826 ft 481 kts 68°
2026-04-25 15:44 43.36401 -61.25991 38826 ft 481 kts 68°
2026-04-25 15:45 43.38524 -61.17261 38815 ft 481 kts 67°
2026-04-25 15:45 43.39939 -61.11428 38818 ft 481 kts 68°
2026-04-25 15:46 43.42750 -60.99798 38804 ft 481 kts 68°
2026-04-25 15:46 43.44857 -60.91047 38799 ft 481 kts 68°
2026-04-25 15:47 43.46958 -60.82286 38799 ft 482 kts 68°
2026-04-25 15:47 43.49051 -60.73514 38793 ft 482 kts 68°
2026-04-25 15:48 43.51125 -60.64794 38785 ft 482 kts 68°
2026-04-25 15:48 43.53205 -60.56008 38783 ft 482 kts 69°
2026-04-25 15:49 43.55280 -60.47214 38781 ft 482 kts 69°
2026-04-25 15:49 43.57350 -60.38414 38777 ft 482 kts 69°
2026-04-25 15:50 43.59410 -60.29615 38772 ft 482 kts 69°
2026-04-25 15:50 43.61464 -60.20804 38770 ft 482 kts 69°
2026-04-25 15:51 43.62819 -60.14975 38765 ft 482 kts 69°
2026-04-25 15:51 43.65535 -60.03240 38759 ft 482 kts 69°
2026-04-25 15:52 43.67567 -59.94423 38759 ft 482 kts 70°
2026-04-25 15:52 43.69589 -59.85614 38746 ft 481 kts 69°
2026-04-25 15:53 43.71605 -59.76783 38733 ft 481 kts 70°
2026-04-25 15:53 43.73617 -59.67948 38734 ft 481 kts 69°
2026-04-25 15:54 43.75621 -59.59107 38724 ft 482 kts 69°
2026-04-25 15:54 43.77608 -59.50313 38726 ft 482 kts 69°
2026-04-25 15:55 43.79597 -59.41461 38714 ft 482 kts 70°
2026-04-25 15:55 43.81579 -59.32607 38713 ft 482 kts 70°
2026-04-25 15:56 43.83555 -59.23746 38708 ft 482 kts 70°
2026-04-25 15:56 43.85527 -59.14868 38704 ft 482 kts 70°
2026-04-25 15:57 43.87492 -59.05989 38697 ft 482 kts 70°
2026-04-25 15:57 43.89451 -58.97097 38689 ft 482 kts 70°
2026-04-25 15:58 43.91402 -58.88204 38689 ft 482 kts 70°
2026-04-25 15:58 43.93350 -58.79284 38689 ft 482 kts 70°
2026-04-25 15:59 43.95288 -58.70368 38690 ft 482 kts 70°
2026-04-25 15:59 43.97220 -58.61450 38675 ft 481 kts 70°
2026-04-25 16:00 43.98493 -58.55553 38677 ft 481 kts 70°
2026-04-25 16:00 44.01056 -58.43632 38667 ft 481 kts 70°
2026-04-25 16:01 44.02963 -58.34712 38664 ft 482 kts 70°
2026-04-25 16:01 44.04863 -58.25790 38661 ft 482 kts 71°
2026-04-25 16:02 44.06747 -58.16903 38653 ft 482 kts 71°
2026-04-25 16:03 44.10370 -57.99710 38643 ft 482 kts 71°
2026-04-25 16:03 44.12249 -57.90730 38637 ft 485 kts 71°
2026-04-25 16:04 44.14130 -57.81706 38636 ft 485 kts 71°
2026-04-25 16:04 44.16003 -57.72680 38626 ft 485 kts 71°
2026-04-25 16:05 44.17870 -57.63641 38627 ft 485 kts 71°
2026-04-25 16:06 44.20647 -57.50125 38622 ft 485 kts 71°
2026-04-25 16:06 44.22498 -57.41066 38626 ft 486 kts 72°
2026-04-25 16:07 44.24342 -57.31996 38617 ft 487 kts 71°
2026-04-25 16:07 44.26184 -57.22902 38608 ft 487 kts 72°
2026-04-25 16:08 44.28015 -57.13810 38609 ft 487 kts 71°
2026-04-25 16:08 44.29841 -57.04714 38601 ft 487 kts 72°
2026-04-25 16:09 44.31657 -56.95617 38588 ft 486 kts 71°
2026-04-25 16:09 44.33451 -56.86594 38581 ft 486 kts 71°
2026-04-25 16:10 44.35251 -56.77495 38579 ft 486 kts 72°
2026-04-25 16:10 44.37045 -56.68386 38574 ft 486 kts 72°
2026-04-25 16:11 44.38835 -56.59258 38568 ft 487 kts 72°
2026-04-25 16:11 44.40616 -56.50137 38565 ft 486 kts 72°
2026-04-25 16:12 44.42388 -56.41012 38556 ft 486 kts 72°
2026-04-25 16:12 44.44154 -56.31883 38547 ft 486 kts 71°
2026-04-25 16:13 44.45912 -56.22734 38556 ft 486 kts 72°
2026-04-25 16:13 44.47665 -56.13578 38548 ft 488 kts 72°
2026-04-25 16:14 44.49183 -56.04297 38539 ft 490 kts 77°
2026-04-25 16:14 44.50279 -55.94930 38536 ft 491 kts 78°
2026-04-25 16:15 44.51310 -55.85495 38524 ft 491 kts 78°
2026-04-25 16:15 44.52330 -55.76041 38522 ft 491 kts 79°
2026-04-25 16:16 44.53357 -55.66572 38523 ft 491 kts 79°
2026-04-25 16:16 44.54380 -55.57108 38513 ft 493 kts 79°
2026-04-25 16:17 44.55393 -55.47582 38504 ft 494 kts 79°
2026-04-25 16:17 44.56398 -55.38071 38499 ft 493 kts 79°
2026-04-25 16:18 44.57392 -55.28601 38493 ft 494 kts 80°
2026-04-25 16:18 44.58382 -55.19077 38494 ft 494 kts 80°
2026-04-25 16:19 44.59367 -55.09546 38489 ft 494 kts 80°
2026-04-25 16:19 44.60345 -54.99993 38476 ft 496 kts 79°
2026-04-25 16:20 44.61804 -54.85615 38466 ft 496 kts 80°
2026-04-25 16:21 44.63245 -54.71224 38464 ft 498 kts 80°
2026-04-25 16:21 44.64204 -54.61542 38457 ft 501 kts 80°
2026-04-25 16:22 44.65154 -54.51850 38453 ft 501 kts 80°
2026-04-25 16:22 44.66097 -54.42145 38444 ft 502 kts 80°
2026-04-25 16:23 44.67027 -54.32491 38440 ft 502 kts 80°
2026-04-25 16:23 44.67953 -54.22793 38433 ft 501 kts 81°
2026-04-25 16:24 44.68872 -54.13086 38432 ft 501 kts 81°
2026-04-25 16:24 44.69781 -54.03387 38422 ft 499 kts 81°
2026-04-25 16:25 44.70683 -53.93683 38418 ft 501 kts 81°
2026-04-25 16:25 44.71576 -53.83968 38407 ft 502 kts 81°
2026-04-25 16:26 44.72463 -53.74228 38405 ft 502 kts 82°
2026-04-25 16:26 44.73341 -53.64483 38387 ft 501 kts 82°
2026-04-25 16:27 44.74210 -53.54758 38396 ft 501 kts 82°
2026-04-25 16:27 44.75071 -53.45025 38349 ft 501 kts 82°
2026-04-25 16:28 44.75918 -53.35355 38303 ft 501 kts 82°
2026-04-25 16:28 44.76764 -53.25608 38204 ft 501 kts 82°
2026-04-25 16:29 44.77601 -53.15854 38121 ft 502 kts 82°
2026-04-25 16:29 44.78290 -53.07743 37959 ft 502 kts 82°
2026-04-25 16:29 44.78702 -53.02866 37828 ft 502 kts 82°
2026-04-25 16:30 44.79112 -52.97983 37695 ft 501 kts 82°
2026-04-25 16:30 44.79518 -52.93118 37557 ft 500 kts 82°
2026-04-25 16:30 44.79922 -52.88256 37430 ft 499 kts 82°
2026-04-25 16:31 44.80721 -52.78567 37361 ft 498 kts 82°
2026-04-25 16:31 44.81514 -52.68855 37356 ft 500 kts 82°
2026-04-25 16:32 44.82300 -52.59133 37350 ft 500 kts 82°
2026-04-25 16:32 44.83075 -52.49415 37354 ft 496 kts 82°
2026-04-25 16:33 44.83834 -52.39795 37343 ft 493 kts 82°
2026-04-25 16:33 44.84586 -52.30177 37340 ft 496 kts 82°
2026-04-25 16:34 44.85339 -52.20455 37334 ft 501 kts 82°
2026-04-25 16:34 44.86082 -52.10741 37339 ft 502 kts 83°
2026-04-25 16:35 44.86821 -52.00957 37323 ft 502 kts 83°
2026-04-25 16:35 44.87551 -51.91168 37323 ft 502 kts 83°
2026-04-25 16:36 44.88274 -51.81378 37319 ft 502 kts 83°
2026-04-25 16:36 44.88988 -51.71560 37314 ft 504 kts 83°
2026-04-25 16:37 44.89689 -51.61721 37322 ft 504 kts 84°
2026-04-25 16:37 44.90382 -51.51880 37312 ft 503 kts 84°
2026-04-25 16:38 44.91066 -51.42057 37307 ft 504 kts 84°
2026-04-25 16:38 44.91742 -51.32220 37300 ft 504 kts 84°
2026-04-25 16:39 44.92408 -51.22432 37300 ft 505 kts 84°
2026-04-25 16:39 44.93070 -51.12551 37302 ft 506 kts 84°
2026-04-25 16:40 44.93724 -51.02673 37294 ft 504 kts 85°
2026-04-25 16:40 44.94366 -50.92845 37294 ft 502 kts 85°
2026-04-25 16:41 44.95000 -50.83012 37284 ft 503 kts 85°
2026-04-25 16:41 44.95935 -50.68249 37283 ft 505 kts 85°
2026-04-25 16:42 44.96551 -50.58342 37285 ft 507 kts 85°
2026-04-25 16:42 44.97160 -50.48421 37283 ft 507 kts 85°
2026-04-25 16:43 44.97760 -50.38515 37279 ft 506 kts 85°
2026-04-25 16:43 44.98349 -50.28633 37276 ft 502 kts 85°
2026-04-25 16:44 44.98926 -50.18827 37273 ft 500 kts 86°
2026-04-25 16:44 44.99495 -50.08983 37278 ft 503 kts 86°
2026-04-25 16:45 45.00400 -49.99180 37286 ft 504 kts 75°
2026-04-25 16:45 45.02498 -49.89719 37273 ft 503 kts 71°
2026-04-25 16:46 45.04865 -49.80381 37273 ft 504 kts 70°
2026-04-25 16:46 45.06848 -49.72620 37269 ft 504 kts 70°
2026-04-25 16:47 45.09577 -49.61749 37275 ft 505 kts 71°
2026-04-25 16:47 45.11900 -49.52363 37278 ft 505 kts 71°
2026-04-25 16:48 45.14212 -49.42973 37274 ft 505 kts 71°
2026-04-25 16:48 45.16525 -49.33543 37268 ft 507 kts 71°
2026-04-25 16:49 45.18834 -49.24094 37285 ft 507 kts 71°
2026-04-25 16:49 45.21131 -49.14654 37274 ft 507 kts 72°
2026-04-25 16:50 45.23425 -49.05186 37276 ft 507 kts 72°
2026-04-25 16:50 45.25709 -48.95725 37288 ft 507 kts 72°
2026-04-25 16:51 45.27970 -48.86319 37285 ft 507 kts 72°
2026-04-25 16:51 45.29868 -48.78383 37282 ft 506 kts 72°
2026-04-25 16:52 45.32491 -48.67377 37289 ft 506 kts 72°
2026-04-25 16:52 45.34741 -48.57900 37293 ft 506 kts 73°
2026-04-25 16:53 45.38116 -48.43593 37298 ft 510 kts 73°
2026-04-25 16:54 45.40365 -48.34009 37300 ft 510 kts 73°
2026-04-25 16:54 45.42606 -48.24420 37314 ft 510 kts 73°
2026-04-25 16:55 45.44834 -48.14842 37312 ft 510 kts 73°
2026-04-25 16:55 45.47054 -48.05262 37314 ft 509 kts 73°
2026-04-25 16:56 45.49248 -47.95747 37314 ft 509 kts 73°
2026-04-25 16:56 45.51454 -47.86139 37329 ft 509 kts 74°
2026-04-25 16:57 45.53649 -47.76536 37332 ft 510 kts 74°
2026-04-25 16:57 45.55838 -47.66921 37334 ft 510 kts 74°
2026-04-25 16:58 45.58021 -47.57284 37336 ft 511 kts 74°
2026-04-25 16:58 45.60195 -47.47637 37351 ft 510 kts 74°
2026-04-25 16:59 45.62364 -47.37980 37351 ft 510 kts 75°
2026-04-25 16:59 45.64508 -47.28394 37361 ft 509 kts 75°
2026-04-25 17:00 45.66654 -47.18747 37361 ft 509 kts 74°
2026-04-25 17:00 45.68796 -47.09076 37375 ft 510 kts 75°
2026-04-25 17:01 45.70929 -46.99405 37373 ft 510 kts 75°
2026-04-25 17:01 45.73051 -46.89737 37380 ft 509 kts 75°
2026-04-25 17:02 45.75163 -46.80073 37385 ft 508 kts 75°
2026-04-25 17:02 45.77266 -46.70401 37393 ft 508 kts 75°
2026-04-25 17:03 45.79361 -46.60715 37393 ft 508 kts 75°
2026-04-25 17:03 45.81446 -46.51035 37404 ft 507 kts 75°
2026-04-25 17:04 45.83507 -46.41428 37403 ft 507 kts 75°
2026-04-25 17:04 45.85571 -46.31755 37405 ft 507 kts 75°
2026-04-25 17:05 45.87639 -46.22021 37414 ft 507 kts 76°
2026-04-25 17:05 45.90696 -46.07544 37426 ft 507 kts 76°
2026-04-25 17:06 45.92733 -45.97841 37430 ft 507 kts 76°
2026-04-25 17:06 45.94759 -45.88144 37429 ft 507 kts 76°
2026-04-25 17:07 45.96781 -45.78421 37435 ft 507 kts 76°
2026-04-25 17:07 45.98790 -45.68712 37447 ft 506 kts 76°
2026-04-25 17:08 46.00776 -45.59070 37449 ft 506 kts 76°
2026-04-25 17:08 46.02770 -45.49341 37446 ft 506 kts 76°
2026-04-25 17:09 46.04755 -45.39608 37449 ft 506 kts 77°
2026-04-25 17:09 46.06730 -45.29874 37467 ft 506 kts 77°
2026-04-25 17:10 46.08699 -45.20125 37468 ft 506 kts 77°
2026-04-25 17:10 46.10658 -45.10376 37470 ft 506 kts 77°
2026-04-25 17:11 46.12608 -45.00623 37455 ft 506 kts 77°
2026-04-25 17:11 46.14550 -44.90865 37479 ft 506 kts 77°
2026-04-25 17:12 46.16472 -44.81158 37481 ft 507 kts 77°
2026-04-25 17:12 46.18396 -44.71390 37481 ft 507 kts 77°
2026-04-25 17:13 46.19681 -44.64843 37484 ft 506 kts 77°
2026-04-25 17:13 46.22223 -44.51823 37495 ft 506 kts 77°
2026-04-25 17:14 46.24124 -44.42022 37495 ft 506 kts 78°
2026-04-25 17:14 46.26018 -44.32211 37495 ft 506 kts 78°
2026-04-25 17:15 46.27583 -44.24066 37495 ft 506 kts 78°
2026-04-25 17:15 46.29459 -44.14260 37500 ft 506 kts 78°
2026-04-25 17:16 46.31324 -44.04458 37501 ft 505 kts 78°
2026-04-25 17:16 46.33182 -43.94640 37505 ft 506 kts 78°
2026-04-25 17:17 46.35032 -43.84813 37506 ft 507 kts 78°
2026-04-25 17:17 46.36880 -43.74946 37510 ft 507 kts 78°
2026-04-25 17:18 46.38720 -43.65075 37511 ft 506 kts 79°
2026-04-25 17:18 46.40535 -43.55281 37512 ft 506 kts 79°
2026-04-25 17:19 46.42353 -43.45419 37520 ft 506 kts 79°
2026-04-25 17:19 46.44162 -43.35554 37507 ft 506 kts 79°
2026-04-25 17:20 46.45967 -43.25655 37522 ft 507 kts 79°
2026-04-25 17:20 46.47752 -43.15821 37527 ft 507 kts 79°
2026-04-25 17:21 46.49538 -43.05920 37513 ft 506 kts 79°
2026-04-25 17:21 46.51317 -42.96007 37517 ft 508 kts 79°
2026-04-25 17:22 46.52791 -42.87748 37531 ft 508 kts 79°
2026-04-25 17:22 46.54855 -42.76131 37531 ft 507 kts 79°
2026-04-25 17:23 46.56597 -42.66259 37539 ft 507 kts 80°
2026-04-25 17:23 46.58343 -42.56311 37540 ft 507 kts 80°
2026-04-25 17:24 46.60080 -42.46360 37539 ft 507 kts 80°
2026-04-25 17:24 46.61807 -42.36414 37539 ft 506 kts 80°
2026-04-25 17:25 46.63511 -42.26537 37545 ft 506 kts 80°
2026-04-25 17:25 46.65219 -42.16583 37547 ft 507 kts 80°
2026-04-25 17:26 46.66919 -42.06624 37540 ft 506 kts 81°
2026-04-25 17:26 46.68610 -41.96661 37550 ft 507 kts 81°
2026-04-25 17:27 46.70294 -41.86682 37556 ft 507 kts 81°
2026-04-25 17:27 46.71689 -41.78370 37555 ft 507 kts 81°
2026-04-25 17:28 46.73636 -41.66701 37565 ft 507 kts 81°
2026-04-25 17:28 46.75291 -41.56718 37560 ft 506 kts 81°
2026-04-25 17:29 46.76939 -41.46718 37560 ft 506 kts 81°
2026-04-25 17:29 46.78576 -41.36725 37571 ft 506 kts 81°
2026-04-25 17:30 46.80194 -41.26791 37562 ft 506 kts 81°
2026-04-25 17:30 46.81815 -41.16782 37575 ft 505 kts 81°
2026-04-25 17:31 46.83421 -41.06801 37576 ft 506 kts 82°
2026-04-25 17:31 46.85028 -40.96753 37583 ft 509 kts 82°
2026-04-25 17:32 46.86635 -40.86629 37572 ft 513 kts 82°
2026-04-25 17:32 46.88243 -40.76458 37586 ft 514 kts 82°
2026-04-25 17:33 46.89844 -40.66276 37595 ft 514 kts 82°
2026-04-25 17:33 46.91437 -40.56076 37594 ft 514 kts 82°
2026-04-25 17:34 46.93008 -40.45949 37600 ft 514 kts 82°
2026-04-25 17:34 46.94579 -40.35750 37603 ft 513 kts 82°
2026-04-25 17:35 46.96141 -40.25553 37608 ft 513 kts 82°
2026-04-25 17:35 46.97695 -40.15341 37608 ft 513 kts 82°
2026-04-25 17:36 46.99239 -40.05119 37608 ft 515 kts 83°
2026-04-25 17:36 47.00221 -39.94800 37618 ft 510 kts 91°
2026-04-25 17:37 47.00714 -39.84435 37614 ft 509 kts 92°
2026-04-25 17:37 47.01126 -39.74140 37617 ft 509 kts 93°
2026-04-25 17:38 47.01467 -39.65471 37622 ft 509 kts 93°
2026-04-25 17:38 47.01944 -39.53424 37620 ft 509 kts 93°
2026-04-25 17:39 47.02349 -39.43037 37628 ft 511 kts 93°
2026-04-25 17:39 47.02747 -39.32608 37633 ft 514 kts 93°
2026-04-25 17:40 47.03137 -39.22132 37634 ft 516 kts 93°
2026-04-25 17:40 47.03520 -39.11637 37632 ft 516 kts 93°
2026-04-25 17:41 47.03891 -39.01186 37631 ft 516 kts 92°
2026-04-25 17:41 47.04254 -38.90661 37638 ft 518 kts 92°
2026-04-25 17:42 47.04609 -38.80102 37645 ft 518 kts 92°
2026-04-25 17:42 47.04955 -38.69539 37643 ft 518 kts 93°
2026-04-25 17:43 47.05289 -38.58984 37645 ft 519 kts 92°
2026-04-25 17:43 47.05616 -38.48405 37648 ft 518 kts 92°
2026-04-25 17:44 47.05931 -38.37941 37648 ft 515 kts 92°
2026-04-25 17:44 47.06235 -38.27452 37650 ft 515 kts 92°
2026-04-25 17:45 47.06432 -38.20432 37666 ft 515 kts 93°
2026-04-25 17:45 47.06813 -38.06453 37655 ft 515 kts 93°
2026-04-25 17:46 47.07088 -37.95964 37653 ft 514 kts 92°
2026-04-25 17:46 47.07354 -37.85503 37662 ft 513 kts 92°
2026-04-25 17:47 47.07608 -37.75034 37666 ft 514 kts 92°
2026-04-25 17:47 47.07855 -37.64539 37667 ft 514 kts 92°
2026-04-25 17:48 47.08207 -37.48819 37662 ft 513 kts 93°
2026-04-25 17:49 47.08243 -37.47123 37670 ft 512 kts 93°